Location: Kumla
(59.1265°N, 15.1401°E)
Time: 21:26:56
(UTC+01:00)

Transit 2A Rocket - Visible Passes

Search period start: 06 December 2023 00:00
Search period end: 16 December 2023 00:00
Orbit: 593 x 903 km, 66.7° (Epoch: 06 December)

Date Brightness Start Highest point End Pass type
(mag) Time Alt. Az. Time Alt. Az. Time Alt. Az.
06 Dec 6.8 04:02:07 20° ESE 04:02:07 20° ESE 04:03:31 10° ESE visible
06 Dec 5.6 05:41:59 29° SW 05:41:59 29° SW 05:45:15 10° S visible
07 Dec 6.1 04:59:55 26° S 04:59:55 26° S 05:02:06 10° SSE visible
07 Dec 6.7 06:39:46 10° WSW 06:39:46 10° WSW 06:39:49 10° WSW visible
08 Dec 7.0 04:17:54 15° SE 04:17:54 15° SE 04:18:41 10° SE visible
08 Dec 6.6 05:57:46 14° SW 05:57:46 14° SW 05:58:50 10° SSW visible
09 Dec 6.9 05:15:50 12° S 05:15:50 12° S 05:16:20 10° S visible
15 Dec 7.1 18:54:02 10° S 18:54:23 12° S 18:54:23 12° S visible
